[[{"header":{"parameterUnit":"m.s-1","parameterCategory":1,"la1":30.2991,"la2":30.254,"lo1":-89.0895,"lo2":-89.0444,"dy":0.0017,"dx":0.0017,"nx":28,"ny":28,"refTime":"2025-08-23T21:00:00:Z","depth":0,"parameterNumber":2,"parameterNumberName":"U-component_of_WINDS"},"data":[0,0,0,0,0,0,0,0,0,0,0,0,0,0,0,0,0,0,0,0,0,0,0,0,0,0,0,0,0,0,0,0,0,0,0,0,0,0,0,0,0,0,0,0,0,0,0,0,0,0,0,0,0,0,0,0,0,0,-0.2957,-0.2956,0,-0.2871,-0.287,-0.2869,-0.2848,-0.2849,-0.2849,-0.285,-0.2758,-0.2755,-0.2752,0,0,0,0,0,0,0,0,0,0,0,0,0,-0.3099,-0.3096,-0.2957,-0.2956,-0.2955,-0.2871,-0.287,-0.2869,-0.2848,-0.2849,-0.285,-0.285,-0.2759,-0.2756,-0.2752,0,0,0,0,0,0,0,0,0,0,0,0,0,-0.3027,-0.3095,-0.2957,-0.2934,-0.2932,-0.2871,-0.287,-0.2868,-0.2848,-0.2849,-0.285,-0.2851,-0.276,-0.2756,-0.2752,-0.2707,0,0,-0.2738,-0.2736,0,0,0,0,0,0,0,0,-0.3031,-0.3022,-0.2939,-0.2936,-0.2933,-0.2871,-0.2886,-0.2814,-0.2848,-0.288,-0.285,-0.2851,-0.2795,-0.2788,-0.277,-0.2702,-0.2698,-0.2738,-0.2735,-0.2733,-0.2732,0,0,0,0,0,0,0,-0.3036,-0.3026,-0.2923,-0.2938,-0.2934,-0.2927,-0.2918,-0.2872,-0.2833,-0.2877,-0.2875,-0.2866,-0.2793,-0.2774,-0.2767,-0.2697,-0.2738,-0.2734,-0.2731,-0.2729,-0.2585,-0.2584,0,0,0,0,0,0,-0.3046,-0.303,-0.2925,-0.292,-0.2985,-0.2924,-0.2914,-0.289,-0.2834,-0.2826,-0.2865,-0.2865,-0.2781,-0.2772,-0.2764,-0.2705,-0.2733,-0.2729,-0.2726,-0.2586,-0.2585,-0.2584,0,0,0,0,0,0,-0.3049,-0.3037,-0.2929,-0.2975,-0.296,-0.2921,-0.2894,-0.2888,-0.2868,-0.2825,-0.2817,-0.2852,-0.2781,-0.277,-0.2721,-0.2701,-0.2727,-0.2723,-0.2588,-0.2586,-0.2584,-0.2588,0,0,0,0,0,0,-0.3053,-0.3038,-0.3021,-0.2974,-0.2958,-0.2888,-0.2893,-0.2886,-0.2861,-0.286,-0.2811,-0.2804,-0.2781,-0.2727,-0.2716,-0.2696,-0.2719,-0.2589,-0.2587,-0.2585,-0.2589,-0.2586,-0.2584,0,0,0,0,0,-0.3058,-0.3026,-0.3021,-0.3008,-0.2937,-0.2887,-0.2878,-0.2854,-0.286,-0.2842,-0.2814,-0.2805,-0.2706,-0.2722,-0.271,-0.2687,-0.259,-0.2587,-0.2585,-0.259,-0.2587,-0.2584,0,0,0,0,0,0,-0.307,-0.3019,-0.3013,-0.2965,-0.2931,-0.2884,-0.2861,-0.2851,-0.2814,-0.2815,-0.2785,-0.2774,-0.2726,-0.2702,-0.2721,-0.2639,-0.2648,-0.2643,-0.2656,-0.2653,-0.265,-0.2656,-0.2715,0,0,0,0,0,-0.3068,-0.3033,-0.299,-0.2951,-0.2935,-0.2901,-0.2878,-0.2863,-0.2826,-0.2811,-0.2779,-0.2742,-0.2702,-0.2677,-0.2638,-0.2587,-0.2574,-0.2565,-0.2562,-0.2561,-0.2555,-0.2523,-0.2518,-0.2575,-0.2575,-0.2575,0,0,-0.3061,-0.3029,-0.3009,-0.2953,-0.2925,-0.2887,-0.2889,-0.285,-0.2821,-0.2805,-0.2755,-0.2731,-0.2688,-0.2636,-0.2612,-0.2615,-0.2537,-0.2557,-0.2556,-0.2552,-0.252,-0.2514,-0.2509,-0.2574,-0.2574,-0.2574,0,0,-0.303,-0.3004,-0.2967,-0.2939,-0.2896,-0.2874,-0.2865,-0.282,-0.2803,-0.2754,-0.2739,-0.2705,-0.2638,-0.2607,-0.2582,-0.2538,-0.2528,-0.2527,-0.2512,-0.2481,-0.2476,-0.2472,-0.2453,-0.2447,-0.2522,-0.2522,-0.2522,0,-0.3027,-0.2972,-0.2949,-0.2911,-0.2885,-0.287,-0.2831,-0.2804,-0.2751,-0.2733,-0.2738,-0.2652,-0.2622,-0.2561,-0.2551,-0.2533,-0.2519,-0.2531,-0.2479,-0.2475,-0.247,-0.2452,-0.2445,-0.2522,-0.2522,-0.2522,-0.2522,0,-0.2968,-0.293,-0.2906,-0.2855,-0.2827,-0.2789,-0.2759,-0.2733,-0.272,-0.2697,-0.2645,-0.2609,-0.2561,-0.2546,-0.2533,-0.2483,-0.2486,-0.2486,-0.2493,-0.2465,-0.2447,-0.244,-0.2522,-0.2522,-0.2522,-0.2522,0,0,-0.2941,-0.2878,-0.2869,-0.2845,-0.2797,-0.2766,-0.2726,-0.2681,-0.2658,-0.2622,-0.2585,-0.2529,-0.2528,-0.25,-0.2483,-0.2457,-0.242,-0.2459,-0.2457,-0.245,-0.2358,-0.2356,-0.2349,-0.2414,-0.2413,-0.2412,-0.2361,0,-0.2901,-0.283,-0.2809,-0.2748,-0.2711,-0.2696,-0.2661,-0.2626,-0.2603,-0.2567,-0.2542,-0.25,-0.2504,-0.2487,-0.246,-0.243,-0.24,-0.2434,-0.2377,-0.2375,-0.2385,-0.234,-0.2338,-0.2291,-0.2354,-0.2353,-0.2352,0,-0.2845,-0.2808,-0.2745,-0.2699,-0.2683,-0.2652,-0.2607,-0.2574,-0.2533,-0.2518,-0.2487,-0.2472,-0.2428,-0.244,-0.2376,-0.24,-0.2375,-0.2357,-0.2355,-0.2346,-0.2359,-0.2326,-0.2276,-0.2268,-0.2341,-0.2342,-0.2343,0,-0.2827,-0.2762,-0.2715,-0.2695,-0.2642,-0.262,-0.2596,-0.2557,-0.253,-0.2491,-0.2473,-0.2429,-0.2404,-0.2369,-0.2342,-0.2354,-0.2279,-0.229,-0.2263,-0.2263,-0.2245,-0.2246,-0.2187,-0.2235,-0.2236,-0.2236,-0.2236,0,-0.2783,-0.2744,-0.2706,-0.2676,-0.2631,-0.2606,-0.2561,-0.2537,-0.2502,-0.2466,-0.2451,-0.2417,-0.2385,-0.2346,-0.2324,-0.2273,-0.2263,-0.2247,-0.2241,-0.2246,-0.2247,-0.2227,-0.2228,-0.2234,-0.2234,-0.2235,-0.2235,0,-0.2755,-0.2728,-0.2675,-0.2629,-0.2616,-0.2584,-0.2544,-0.2514,-0.2491,-0.2445,-0.2432,-0.2395,-0.2348,-0.2319,-0.226,-0.2245,-0.2187,-0.2184,-0.2201,-0.2197,-0.217,-0.2171,-0.2093,-0.2079,-0.2141,-0.214,-0.214,0,-0.2727,-0.2696,-0.2647,-0.2622,-0.2598,-0.2559,-0.2531,-0.2505,-0.2477,-0.2428,-0.2403,-0.2356,-0.2316,-0.2242,-0.2208,-0.2162,-0.2155,-0.2131,-0.2148,-0.2153,-0.215,-0.215,-0.2145,-0.2127,-0.2126,-0.2126,-0.2125,0,-0.2679,-0.2667,-0.2629,-0.2585,-0.2553,-0.2517,-0.2481,-0.2461,-0.2428,-0.2397,-0.2349,-0.2319,-0.2258,-0.221,-0.216,-0.2134,-0.2122,-0.2121,-0.2111,-0.2114,-0.2123,-0.2114,-0.2189,-0.2122,-0.2122,-0.2123,-0.2123,-0.2123,-0.2647,-0.2618,-0.2578,-0.2535,-0.2506,-0.2472,-0.244,-0.2413,-0.2374,-0.2322,-0.2309,-0.2259,-0.2217,-0.2149,-0.2122,-0.2081,-0.2083,-0.2071,-0.2067,-0.2063,-0.206,-0.2134,-0.2072,-0.2072,-0.2072,-0.2072,-0.2072,0,-0.2595,-0.2569,-0.253,-0.248,-0.2445,-0.2441,-0.24,-0.2371,-0.2326,-0.2289,-0.2251,-0.2194,-0.2147,-0.211,-0.2061,-0.2034,-0.2028,-0.2022,-0.2021,-0.2015,-0.2062,-0.2074,-0.2028,-0.2028,-0.2028,-0.2028,-0.2028,-0.2028,-0.2564,-0.2514,-0.2497,-0.243,-0.2404,-0.2354,-0.2331,-0.2299,-0.2269,-0.2207,-0.2168,-0.2145,-0.2106,-0.2054,-0.2009,-0.1999,-0.198,-0.1975,-0.1963,-0.2007,-0.2012,-0.2016,-0.2027,-0.1972,-0.1972,-0.1918,-0.1918,-0.1917]},{"header":{"parameterUnit":"m.s-1","parameterCategory":1,"la1":30.2991,"la2":30.254,"lo1":-89.0895,"lo2":-89.0444,"dy":0.0017,"dx":0.0017,"nx":28,"ny":28,"refTime":"2025-08-23T21:00:00:Z","depth":0,"parameterNumber":3,"parameterNumberName":"V-component_of_WINDS"},"data":[0,0,0,0,0,0,0,0,0,0,0,0,0,0,0,0,0,0,0,0,0,0,0,0,0,0,0,0,0,0,0,0,0,0,0,0,0,0,0,0,0,0,0,0,0,0,0,0,0,0,0,0,0,0,0,0,0,0,-0.1009,-0.1009,0,-0.1016,-0.1016,-0.1016,-0.102,-0.102,-0.102,-0.102,-0.1026,-0.1026,-0.1027,0,0,0,0,0,0,0,0,0,0,0,0,0,-0.0998,-0.0998,-0.1009,-0.1009,-0.1009,-0.1016,-0.1016,-0.1016,-0.102,-0.102,-0.102,-0.102,-0.1026,-0.1026,-0.1027,0,0,0,0,0,0,0,0,0,0,0,0,0,-0.1003,-0.0998,-0.1009,-0.1012,-0.1012,-0.1016,-0.1016,-0.1016,-0.102,-0.102,-0.102,-0.102,-0.1026,-0.1026,-0.1027,-0.1028,0,0,-0.1027,-0.1028,0,0,0,0,0,0,0,0,-0.1003,-0.1004,-0.1011,-0.1012,-0.1012,-0.1017,-0.1015,-0.102,-0.102,-0.1017,-0.102,-0.102,-0.1023,-0.1024,-0.1025,-0.1028,-0.1029,-0.1027,-0.1028,-0.1028,-0.1028,0,0,0,0,0,0,0,-0.1003,-0.1004,-0.1012,-0.1011,-0.1012,-0.1012,-0.1013,-0.1016,-0.102,-0.1017,-0.1017,-0.1018,-0.1023,-0.1025,-0.1025,-0.1029,-0.1027,-0.1028,-0.1028,-0.1028,-0.1034,-0.1034,0,0,0,0,0,0,-0.1002,-0.1003,-0.1012,-0.1012,-0.1008,-0.1013,-0.1014,-0.1015,-0.102,-0.1021,-0.1018,-0.1018,-0.1024,-0.1025,-0.1025,-0.1028,-0.1028,-0.1028,-0.1028,-0.1034,-0.1034,-0.1034,0,0,0,0,0,0,-0.1002,-0.1003,-0.1011,-0.1008,-0.1009,-0.1013,-0.1015,-0.1016,-0.1017,-0.1021,-0.1021,-0.1019,-0.1024,-0.1025,-0.1028,-0.1028,-0.1028,-0.1028,-0.1034,-0.1034,-0.1034,-0.1032,0,0,0,0,0,0,-0.1001,-0.1003,-0.1003,-0.1008,-0.1009,-0.1014,-0.1015,-0.1016,-0.1018,-0.1018,-0.1022,-0.1022,-0.1024,-0.1027,-0.1028,-0.1028,-0.1028,-0.1034,-0.1034,-0.1034,-0.1032,-0.1032,-0.1032,0,0,0,0,0,-0.1001,-0.1002,-0.1003,-0.1004,-0.101,-0.1014,-0.1014,-0.1017,-0.1018,-0.1018,-0.1021,-0.1022,-0.1028,-0.1027,-0.1028,-0.1029,-0.1034,-0.1034,-0.1034,-0.1032,-0.1032,-0.1032,0,0,0,0,0,0,-0.0998,-0.1003,-0.1004,-0.1007,-0.101,-0.1014,-0.1015,-0.1017,-0.1019,-0.1019,-0.1022,-0.1023,-0.1026,-0.1027,-0.1027,-0.1031,-0.1031,-0.1031,-0.1029,-0.1029,-0.1029,-0.1029,-0.1029,0,0,0,0,0,-0.0997,-0.1,-0.1004,-0.1006,-0.1008,-0.1011,-0.1013,-0.1015,-0.1018,-0.1019,-0.1021,-0.1024,-0.1026,-0.1028,-0.103,-0.1032,-0.1033,-0.1033,-0.1033,-0.1033,-0.1033,-0.1035,-0.1035,-0.1034,-0.1034,-0.1034,0,0,-0.0996,-0.1,-0.1001,-0.1006,-0.1008,-0.1011,-0.1012,-0.1015,-0.1016,-0.1019,-0.1022,-0.1024,-0.1027,-0.1029,-0.103,-0.1031,-0.1033,-0.1033,-0.1033,-0.1033,-0.1035,-0.1035,-0.1035,-0.1034,-0.1034,-0.1034,0,0,-0.0996,-0.0999,-0.1001,-0.1003,-0.1007,-0.101,-0.101,-0.1014,-0.1016,-0.1019,-0.1021,-0.1023,-0.1027,-0.1029,-0.1031,-0.1031,-0.1033,-0.1032,-0.1032,-0.1033,-0.1033,-0.1033,-0.1033,-0.1033,-0.1032,-0.1032,-0.1032,0,-0.0994,-0.0999,-0.1002,-0.1004,-0.1006,-0.1009,-0.1011,-0.1013,-0.1018,-0.1019,-0.1019,-0.1024,-0.1027,-0.103,-0.103,-0.1031,-0.1032,-0.1032,-0.1033,-0.1033,-0.1033,-0.1033,-0.1033,-0.1032,-0.1032,-0.1032,-0.1032,0,-0.0996,-0.0999,-0.1,-0.1005,-0.1007,-0.1009,-0.1013,-0.1014,-0.1016,-0.1018,-0.1021,-0.1024,-0.1027,-0.1028,-0.1029,-0.1031,-0.1031,-0.1032,-0.1033,-0.1033,-0.1033,-0.1033,-0.1032,-0.1032,-0.1032,-0.1032,0,0,-0.0994,-0.1001,-0.1001,-0.1003,-0.1008,-0.101,-0.1012,-0.1015,-0.1017,-0.102,-0.1022,-0.1025,-0.1026,-0.1028,-0.103,-0.1031,-0.1031,-0.1032,-0.1032,-0.1032,-0.1034,-0.1033,-0.1033,-0.1032,-0.1032,-0.1032,-0.1034,0,-0.0995,-0.0999,-0.1002,-0.1006,-0.1008,-0.1011,-0.1013,-0.1016,-0.1018,-0.1021,-0.1023,-0.1025,-0.1026,-0.1027,-0.1029,-0.1031,-0.1032,-0.1031,-0.1034,-0.1034,-0.1033,-0.1034,-0.1033,-0.1034,-0.1034,-0.1034,-0.1034,0,-0.0996,-0.0999,-0.1003,-0.1007,-0.1009,-0.101,-0.1014,-0.1016,-0.1019,-0.1021,-0.1023,-0.1025,-0.1027,-0.1028,-0.1031,-0.103,-0.1032,-0.1033,-0.1033,-0.1034,-0.1034,-0.1034,-0.1034,-0.1034,-0.1034,-0.1034,-0.1034,0,-0.0994,-0.0999,-0.1002,-0.1004,-0.1009,-0.101,-0.1013,-0.1016,-0.1018,-0.1021,-0.1022,-0.1025,-0.1026,-0.1029,-0.1031,-0.1031,-0.1034,-0.1035,-0.1036,-0.1036,-0.1036,-0.1036,-0.1037,-0.1037,-0.1037,-0.1037,-0.1037,0,-0.0994,-0.0997,-0.1002,-0.1003,-0.1006,-0.1009,-0.1012,-0.1014,-0.1017,-0.1019,-0.1022,-0.1024,-0.1027,-0.1029,-0.1031,-0.1034,-0.1034,-0.1035,-0.1036,-0.1035,-0.1035,-0.1036,-0.1036,-0.1037,-0.1037,-0.1037,-0.1037,0,-0.0993,-0.0996,-0.1,-0.1004,-0.1006,-0.1007,-0.1011,-0.1013,-0.1016,-0.1018,-0.1019,-0.1023,-0.1026,-0.1028,-0.1032,-0.1033,-0.1036,-0.1037,-0.1035,-0.1035,-0.1036,-0.1036,-0.1037,-0.1038,-0.1038,-0.1038,-0.1038,0,-0.0993,-0.0995,-0.1,-0.1002,-0.1004,-0.1007,-0.1009,-0.1012,-0.1014,-0.1018,-0.1019,-0.1023,-0.1025,-0.103,-0.1032,-0.1035,-0.1036,-0.1036,-0.1036,-0.1036,-0.1036,-0.1036,-0.1036,-0.1036,-0.1036,-0.1036,-0.1036,0,-0.0993,-0.0994,-0.0997,-0.1001,-0.1004,-0.1007,-0.101,-0.1011,-0.1015,-0.1017,-0.102,-0.1022,-0.1026,-0.1029,-0.1032,-0.1034,-0.1036,-0.1036,-0.1036,-0.1036,-0.1035,-0.1036,-0.1035,-0.1036,-0.1036,-0.1036,-0.1036,-0.1036,-0.0992,-0.0994,-0.0998,-0.1001,-0.1004,-0.1007,-0.1009,-0.1012,-0.1014,-0.1018,-0.102,-0.1023,-0.1026,-0.1031,-0.1033,-0.1035,-0.1035,-0.1036,-0.1036,-0.1036,-0.1036,-0.1035,-0.1036,-0.1036,-0.1036,-0.1036,-0.1036,0,-0.0992,-0.0995,-0.0998,-0.1002,-0.1005,-0.1006,-0.101,-0.1012,-0.1015,-0.1018,-0.1021,-0.1024,-0.1027,-0.103,-0.1033,-0.1035,-0.1036,-0.1035,-0.1035,-0.1036,-0.1035,-0.1035,-0.1035,-0.1035,-0.1035,-0.1035,-0.1035,-0.1035,-0.0992,-0.0996,-0.0998,-0.1003,-0.1005,-0.1009,-0.1011,-0.1013,-0.1016,-0.102,-0.1022,-0.1024,-0.1028,-0.1031,-0.1034,-0.1034,-0.1036,-0.1035,-0.1036,-0.1036,-0.1036,-0.1036,-0.1036,-0.1035,-0.1035,-0.1037,-0.1037,-0.1037]}]]